Regional Weather Roundup
Issued by NWS

Home | Current Version | Previous Version | Text Only | Print | Product List | Glossary On
Versions: 1 2 3 4 5 6 7 8 9 10 11 12 13 14 15 16 17 18 19 20 21 22 23 24 25 26 27 28 29 30 31 32 33 34 35 36 37 38 39 40 41 42 43 44 45 46 47 48 49 50
000
ASUS43 KOAX 011102
RWRNE

WEATHER ROUNDUP FOR NEBRASKA
NATIONAL WEATHER SERVICE OMAHA NE
500 AM CST WED MAR 01 2017

NOTES: SATELLITE DATA IS BEING USED TO AUGMENT CLOUD COVER ABOVE
       12000 FEET.
       "FAIR" INDICATES FEW OR NO CLOUDS BELOW 12,000 FEET WITH NO
       SIGNIFICANT WEATHER AND/OR OBSTRUCTIONS TO VISIBILITY.

  * THESE STATIONS DO NOT REPORT WEATHER SUCH AS RAIN...SNOW OR FOG.

NEZ001>004-019>022-054>056-011200-
NEBRASKA PANHANDLE

CITY           SKY/WX    TMP DP  RH WIND       PRES   REMARKS
SCOTTSBLUFF    CLEAR     23  11  60 W12G24    30.05R WCI  12
ALLIANCE       CLEAR     16   9  74 W20       29.99R WCI  -1
CHADRON        PTCLDY    23  14  68 W26       30.01R WCI   6
KIMBALL        CLEAR     25  12  56 NW26G35   30.02R WCI   9
SIDNEY         CLEAR     26  11  52 NW22G35   30.02R WCI  12
$$

NEZ057>060-069>072-079>082-011200-
SOUTHWEST NEBRASKA

CITY           SKY/WX    TMP DP  RH WIND       PRES   REMARKS
NORTH PLATTE   CLEAR     25  15  66 W13       29.98R WCI  14
IMPERIAL       CLEAR     28  12  51 NW14G25   30.02R WCI  17
LEXINGTON      CLEAR     24  17  75 NW10      29.98R WCI  14
MCCOOK         CLEAR     27  14  58 W14       30.01R WCI  16
OGALLALA       CLEAR     29  16  57 NW28G35   30.00R WCI  15
$$

NEZ005>010-023>029-035>040-094-011200-
NORTH CENTRAL NEBRASKA

CITY           SKY/WX    TMP DP  RH WIND       PRES   REMARKS
VALENTINE      MOCLDY    16  12  84 W9        29.96R WCI   4
AINSWORTH      CLOUDY    23  23 100 W9        29.94R WCI  13
BROKEN BOW     CLEAR     23  18  81 NW13      29.95R WCI  11
O`NEILL        CLOUDY    27  25  91 NW15      29.93R WCI  15
ORD            PTCLDY    25  21  85 NW10      29.94R WCI  15
THEDFORD       CLEAR     20  14  77 W9        29.96R WCI   9
$$

NEZ041-046>049-061>064-073>077-083>087-011200-
SOUTH CENTRAL NEBRASKA

CITY           SKY/WX    TMP DP  RH WIND       PRES   REMARKS
GRAND ISLAND   CLEAR     27  24  89 NW13      29.94R WCI  16
AURORA         CLEAR     28  26  89 NW13      29.93R WCI  18
HASTINGS       CLEAR     26  21  81 NW13      29.95R WCI  15
HEBRON         CLEAR     30  25  84 W8        29.95R WCI  22
HOLDREGE       CLEAR     27  18  69 W12G18    29.97R WCI  16
KEARNEY *      CLEAR     27  16  63 NW14      29.96R WCI  15
YORK           CLEAR     30  27  86 NW17G24   29.93R WCI  18
$$

NEZ011>018-030>034-042>045-011200-
NORTHEAST NEBRASKA

CITY           SKY/WX    TMP DP  RH WIND       PRES   REMARKS
NORFOLK        CLOUDY    30  24  78 NW15      29.89R WCI  19
ALBION         PTCLDY    31  24  74 NW14G21   29.92R WCI  21
BLAIR          CLOUDY    33  30  90 NW12      29.86R WCI  24
FREMONT        CLOUDY    32  29  88 NW20G25   29.89R WCI  21
TEKAMAH        CLOUDY    33  28  81 NW18G25   29.87R WCI  22
WAYNE          FLURRIES  31  29  89 NW20G25   29.88R WCI  19
$$

NEZ050>053-065>068-078-088>093-011200-
SOUTHEAST NEBRASKA

CITY           SKY/WX    TMP DP  RH WIND       PRES   REMARKS
LINCOLN        CLOUDY    34  26  72 NW13      29.92R WCI  25
OMAHA EPPLEY   CLOUDY    34  28  79 NW16      29.87R WCI  24
BEATRICE       CLEAR     33  28  80 NW17G25   29.92R WCI  22
FALLS CITY     CLOUDY    36  31  82 NW18      29.87R WCI  26
NEBRASKA CITY  CLOUDY    34  27  75 NW17G26   29.88R WCI  24
PLATTSMOUTH    CLOUDY    34  27  77 W21G26    29.87R WCI  22
$$

NEZ044-045-051>053-067-011200-
OMAHA AREA

CITY           SKY/WX    TMP DP  RH WIND       PRES   REMARKS
OMAHA EPPLEY   CLOUDY    34  28  79 NW16      29.87R WCI  24
BLAIR          CLOUDY    33  30  90 NW12      29.86R WCI  24
FREMONT        CLOUDY    32  29  88 NW20G25   29.89R WCI  21
MILLARD        CLOUDY    36  30  80 NW15G24   29.88R WCI  26
OFFUTT AFB     CLOUDY    34  29  80 NW12G22   29.87R WCI  26
PLATTSMOUTH    CLOUDY    34  27  77 W21G26    29.87R WCI  22
WAHOO          CLOUDY    32  27  81 NW16G26   29.89R WCI  22
$$




USA.gov is the U.S. government's official web portal to all federal, state and local government web resources and services.